Time,TemperatureF,DewpointF,PressureIn,WindDirection,WindDirectionDegrees,WindSpeedMPH,WindSpeedGustMPH,Humidity,HourlyPrecipIn,Conditions,Clouds,dailyrainin,SoftwareType,DateUTC
2013-06-22 00:00:00,78.1,69.5,29.90,SE,135,7.0,12.0,75,0.00,,---,0.00,VWS V14.00,2013-06-22 05:00:00,
2013-06-22 00:05:00,78.1,69.5,29.90,SE,135,7.0,13.0,75,0.00,,---,0.00,VWS V14.00,2013-06-22 05:05:00,
2013-06-22 00:10:00,78.1,69.5,29.90,SE,135,6.0,11.0,75,0.00,,---,0.00,VWS V14.00,2013-06-22 05:10:00,
2013-06-22 00:15:00,78.0,69.4,29.90,SE,135,5.0,10.0,75,0.00,,---,0.00,VWS V14.00,2013-06-22 05:15:00,
2013-06-22 00:20:00,78.0,69.4,29.90,SE,135,5.0,9.0,75,0.00,,---,0.00,VWS V14.00,2013-06-22 05:20:00,
2013-06-22 00:25:00,77.9,69.3,29.90,SE,135,5.0,9.0,75,0.00,,---,0.00,VWS V14.00,2013-06-22 05:25:00,
2013-06-22 00:30:00,77.8,69.2,29.90,SSE,158,5.0,9.0,75,0.00,,---,0.00,VWS V14.00,2013-06-22 05:30:00,
2013-06-22 00:35:00,77.6,69.4,29.91,SSE,158,5.0,9.0,76,0.00,,---,0.00,VWS V14.00,2013-06-22 05:35:00,
2013-06-22 00:40:00,77.5,69.3,29.91,SSE,158,4.0,11.0,76,0.00,,---,0.00,VWS V14.00,2013-06-22 05:40:00,
2013-06-22 00:45:00,77.5,69.3,29.91,SSE,158,6.0,11.0,76,0.00,,---,0.00,VWS V14.00,2013-06-22 05:45:00,
2013-06-22 00:50:00,77.4,69.2,29.90,SSE,158,6.0,11.0,76,0.00,,---,0.00,VWS V14.00,2013-06-22 05:50:00,
2013-06-22 00:55:00,77.4,69.2,29.90,SSE,158,7.0,12.0,76,0.00,,---,0.00,VWS V14.00,2013-06-22 05:55:00,
2013-06-22 01:00:00,77.4,69.2,29.90,SSE,158,7.0,11.0,76,0.00,,---,0.00,VWS V14.00,2013-06-22 06:00:00,
2013-06-22 01:05:00,77.4,69.2,29.90,SSE,158,8.0,14.0,76,0.00,,---,0.00,VWS V14.00,2013-06-22 06:05:00,
2013-06-22 01:10:00,77.5,69.3,29.90,SSE,158,7.0,15.0,76,0.00,,---,0.00,VWS V14.00,2013-06-22 06:10:00,
2013-06-22 01:15:00,77.5,69.3,29.90,SSE,158,6.0,12.0,76,0.00,,---,0.00,VWS V14.00,2013-06-22 06:15:00,
2013-06-22 01:20:00,77.4,69.2,29.90,SSE,158,7.0,11.0,76,0.00,,---,0.00,VWS V14.00,2013-06-22 06:20:00,
2013-06-22 01:25:00,77.3,69.2,29.90,SSE,158,7.0,12.0,76,0.00,,---,0.00,VWS V14.00,2013-06-22 06:25:00,
2013-06-22 01:30:00,77.3,69.2,29.90,SSE,158,4.0,10.0,76,0.00,,---,0.00,VWS V14.00,2013-06-22 06:30:00,
2013-06-22 01:35:00,77.2,69.1,29.90,SSE,158,4.0,10.0,76,0.00,,---,0.00,VWS V14.00,2013-06-22 06:35:00,
2013-06-22 01:40:00,77.1,69.3,29.90,SSE,158,5.0,10.0,77,0.00,,---,0.00,VWS V14.00,2013-06-22 06:40:00,
2013-06-22 01:45:00,77.0,69.2,29.90,SE,135,5.0,9.0,77,0.00,,---,0.00,VWS V14.00,2013-06-22 06:45:00,
2013-06-22 01:50:00,76.9,69.2,29.90,SE,135,4.0,7.0,77,0.00,,---,0.00,VWS V14.00,2013-06-22 06:50:00,
2013-06-22 01:55:00,76.9,69.2,29.90,SE,135,5.0,10.0,77,0.00,,---,0.00,VWS V14.00,2013-06-22 06:55:00,
2013-06-22 02:00:00,76.8,69.1,29.90,SE,135,5.0,11.0,77,0.00,,---,0.00,VWS V14.00,2013-06-22 07:00:00,
2013-06-22 02:05:00,76.8,69.4,29.90,SSE,158,5.0,10.0,78,0.00,,---,0.00,VWS V14.00,2013-06-22 07:05:00,
2013-06-22 02:10:00,76.8,69.4,29.90,SSE,158,7.0,11.0,78,0.00,,---,0.00,VWS V14.00,2013-06-22 07:10:00,
2013-06-22 02:15:00,76.8,69.4,29.90,SE,135,6.0,10.0,78,0.00,,---,0.00,VWS V14.00,2013-06-22 07:15:00,
2013-06-22 02:20:00,76.8,69.4,29.90,SE,135,5.0,11.0,78,0.00,,---,0.00,VWS V14.00,2013-06-22 07:20:00,
2013-06-22 02:25:00,76.8,69.4,29.90,SE,135,5.0,9.0,78,0.00,,---,0.00,VWS V14.00,2013-06-22 07:25:00,
2013-06-22 02:30:00,76.7,69.3,29.89,SE,135,4.0,8.0,78,0.00,,---,0.00,VWS V14.00,2013-06-22 07:30:00,
2013-06-22 02:35:00,76.6,69.2,29.89,SE,135,4.0,8.0,78,0.00,,---,0.00,VWS V14.00,2013-06-22 07:35:00,
2013-06-22 02:40:00,76.4,69.0,29.89,SE,135,5.0,9.0,78,0.00,,---,0.00,VWS V14.00,2013-06-22 07:40:00,
2013-06-22 02:45:00,76.3,69.3,29.89,SSE,158,6.0,11.0,79,0.00,,---,0.00,VWS V14.00,2013-06-22 07:45:00,
2013-06-22 02:50:00,76.3,69.3,29.89,SSE,158,6.0,11.0,79,0.00,,---,0.00,VWS V14.00,2013-06-22 07:50:00,
2013-06-22 02:55:00,76.2,69.2,29.89,SSE,158,6.0,12.0,79,0.00,,---,0.00,VWS V14.00,2013-06-22 07:55:00,
2013-06-22 03:00:00,76.2,69.2,29.88,SSE,158,8.0,13.0,79,0.00,,---,0.00,VWS V14.00,2013-06-22 08:00:00,
2013-06-22 03:05:00,76.3,69.3,29.88,SSE,158,8.0,14.0,79,0.00,,---,0.00,VWS V14.00,2013-06-22 08:05:00,
2013-06-22 03:10:00,76.4,69.4,29.88,SSE,158,7.0,12.0,79,0.00,,---,0.00,VWS V14.00,2013-06-22 08:10:00,
2013-06-22 03:15:00,76.4,69.4,29.88,SSE,158,6.0,12.0,79,0.00,,---,0.00,VWS V14.00,2013-06-22 08:15:00,
2013-06-22 03:20:00,76.4,69.4,29.89,SSE,158,5.0,11.0,79,0.00,,---,0.00,VWS V14.00,2013-06-22 08:20:00,
2013-06-22 03:25:00,76.3,69.3,29.89,SSE,158,5.0,9.0,79,0.00,,---,0.00,VWS V14.00,2013-06-22 08:25:00,
2013-06-22 03:30:00,76.3,69.3,29.89,SSE,158,5.0,9.0,79,0.00,,---,0.00,VWS V14.00,2013-06-22 08:30:00,
2013-06-22 03:35:00,76.2,69.2,29.89,SSE,158,5.0,12.0,79,0.00,,---,0.00,VWS V14.00,2013-06-22 08:35:00,
2013-06-22 03:40:00,76.1,69.1,29.89,SSE,158,5.0,9.0,79,0.00,,---,0.00,VWS V14.00,2013-06-22 08:40:00,
2013-06-22 03:45:00,76.1,69.1,29.89,SE,135,6.0,9.0,79,0.00,,---,0.00,VWS V14.00,2013-06-22 08:45:00,
2013-06-22 03:50:00,76.0,69.0,29.89,SE,135,4.0,9.0,79,0.00,,---,0.00,VWS V14.00,2013-06-22 08:50:00,
2013-06-22 03:55:00,76.0,69.0,29.89,SE,135,6.0,12.0,79,0.00,,---,0.00,VWS V14.00,2013-06-22 08:55:00,
2013-06-22 04:00:00,75.9,68.9,29.89,SE,135,7.0,14.0,79,0.00,,---,0.00,VWS V14.00,2013-06-22 09:00:00,
2013-06-22 04:05:00,75.9,69.3,29.89,SE,135,6.0,10.0,80,0.00,,---,0.00,VWS V14.00,2013-06-22 09:05:00,
2013-06-22 04:10:00,75.9,69.3,29.88,SSE,158,6.0,10.0,80,0.00,,---,0.00,VWS V14.00,2013-06-22 09:10:00,
2013-06-22 04:15:00,75.9,69.3,29.89,SSE,158,6.0,11.0,80,0.00,,---,0.00,VWS V14.00,2013-06-22 09:15:00,
2013-06-22 04:20:00,75.9,68.9,29.89,SSE,158,7.0,12.0,79,0.00,,---,0.00,VWS V14.00,2013-06-22 09:20:00,
2013-06-22 04:25:00,76.0,69.0,29.89,SSE,158,6.0,11.0,79,0.00,,---,0.00,VWS V14.00,2013-06-22 09:25:00,
2013-06-22 04:30:00,76.0,69.0,29.89,SSE,158,6.0,11.0,79,0.00,,---,0.00,VWS V14.00,2013-06-22 09:30:00,
2013-06-22 04:35:00,76.1,69.1,29.89,SSE,158,6.0,11.0,79,0.00,,---,0.00,VWS V14.00,2013-06-22 09:35:00,
2013-06-22 04:40:00,76.1,69.1,29.89,SSE,158,7.0,11.0,79,0.00,,---,0.00,VWS V14.00,2013-06-22 09:40:00,
2013-06-22 04:45:00,76.2,69.2,29.89,SSE,158,7.0,12.0,79,0.00,,---,0.00,VWS V14.00,2013-06-22 09:45:00,
2013-06-22 04:50:00,76.3,69.3,29.89,SSE,158,8.0,13.0,79,0.00,,---,0.00,VWS V14.00,2013-06-22 09:50:00,
2013-06-22 04:55:00,76.3,69.3,29.89,SSE,158,8.0,13.0,79,0.00,,---,0.00,VWS V14.00,2013-06-22 09:55:00,
2013-06-22 05:00:00,76.4,69.0,29.89,SSE,158,8.0,15.0,78,0.00,,---,0.00,VWS V14.00,2013-06-22 10:00:00,
2013-06-22 05:05:00,76.4,69.0,29.89,SSE,158,7.0,13.0,78,0.00,,---,0.00,VWS V14.00,2013-06-22 10:05:00,
2013-06-22 05:10:00,76.4,69.0,29.89,SSE,158,7.0,13.0,78,0.00,,---,0.00,VWS V14.00,2013-06-22 10:10:00,
2013-06-22 05:15:00,76.4,69.4,29.89,SSE,158,7.0,14.0,79,0.00,,---,0.00,VWS V14.00,2013-06-22 10:15:00,
2013-06-22 05:20:00,76.2,69.2,29.89,SSE,158,8.0,13.0,79,0.00,,---,0.00,VWS V14.00,2013-06-22 10:20:00,
2013-06-22 05:25:00,76.2,69.2,29.89,SSE,158,9.0,14.0,79,0.00,,---,0.00,VWS V14.00,2013-06-22 10:25:00,
2013-06-22 05:30:00,76.2,69.2,29.89,South,180,9.0,13.0,79,0.00,,---,0.00,VWS V14.00,2013-06-22 10:30:00,
2013-06-22 05:35:00,76.1,69.1,29.90,SSE,158,9.0,14.0,79,0.00,,---,0.00,VWS V14.00,2013-06-22 10:35:00,
2013-06-22 05:40:00,76.1,69.1,29.90,SSE,158,8.0,13.0,79,0.00,,---,0.00,VWS V14.00,2013-06-22 10:40:00,
2013-06-22 05:45:00,76.0,69.0,29.89,SSE,158,8.0,15.0,79,0.00,,---,0.00,VWS V14.00,2013-06-22 10:45:00,
2013-06-22 05:50:00,75.9,68.9,29.90,SSE,158,7.0,14.0,79,0.00,,---,0.00,VWS V14.00,2013-06-22 10:50:00,
2013-06-22 05:55:00,75.9,68.9,29.90,South,180,9.0,14.0,79,0.00,,---,0.00,VWS V14.00,2013-06-22 10:55:00,
2013-06-22 06:00:00,75.9,68.9,29.90,South,180,8.0,14.0,79,0.00,,---,0.00,VWS V14.00,2013-06-22 11:00:00,
2013-06-22 06:05:00,75.9,68.9,29.90,SSE,158,8.0,13.0,79,0.00,,---,0.00,VWS V14.00,2013-06-22 11:05:00,
2013-06-22 06:10:00,75.8,68.8,29.90,SSE,158,7.0,14.0,79,0.00,,---,0.00,VWS V14.00,2013-06-22 11:10:00,
2013-06-22 06:15:00,75.8,68.8,29.90,SSE,158,7.0,13.0,79,0.00,,---,0.00,VWS V14.00,2013-06-22 11:15:00,
2013-06-22 06:20:00,75.7,69.1,29.90,SSE,158,6.0,11.0,80,0.00,,---,0.00,VWS V14.00,2013-06-22 11:20:00,
2013-06-22 06:25:00,75.7,69.1,29.90,SSE,158,6.0,11.0,80,0.00,,---,0.00,VWS V14.00,2013-06-22 11:25:00,
2013-06-22 06:30:00,75.6,69.0,29.91,SSE,158,8.0,12.0,80,0.00,,---,0.00,VWS V14.00,2013-06-22 11:30:00,
2013-06-22 06:35:00,75.6,69.0,29.90,SSE,158,7.0,13.0,80,0.00,,---,0.00,VWS V14.00,2013-06-22 11:35:00,
2013-06-22 06:40:00,75.5,68.9,29.90,SSE,158,7.0,12.0,80,0.00,,---,0.00,VWS V14.00,2013-06-22 11:40:00,
2013-06-22 06:45:00,75.6,69.0,29.90,SSE,158,6.0,13.0,80,0.00,,---,0.00,VWS V14.00,2013-06-22 11:45:00,
2013-06-22 06:50:00,75.6,69.0,29.90,SSE,158,5.0,11.0,80,0.00,,---,0.00,VWS V14.00,2013-06-22 11:50:00,
2013-06-22 06:55:00,75.7,69.1,29.91,SSE,158,7.0,11.0,80,0.00,,---,0.00,VWS V14.00,2013-06-22 11:55:00,
2013-06-22 07:00:00,75.8,69.2,29.91,SSE,158,7.0,14.0,80,0.00,,---,0.00,VWS V14.00,2013-06-22 12:00:00,
2013-06-22 07:05:00,75.9,69.3,29.91,SE,135,7.0,15.0,80,0.00,,---,0.00,VWS V14.00,2013-06-22 12:05:00,
2013-06-22 07:10:00,76.0,69.4,29.91,SSE,158,8.0,13.0,80,0.00,,---,0.00,VWS V14.00,2013-06-22 12:10:00,
2013-06-22 07:15:00,76.2,69.6,29.91,SSE,158,7.0,13.0,80,0.00,,---,0.00,VWS V14.00,2013-06-22 12:15:00,
2013-06-22 07:20:00,76.3,69.3,29.91,SSE,158,8.0,11.0,79,0.00,,---,0.00,VWS V14.00,2013-06-22 12:20:00,
2013-06-22 07:25:00,76.5,69.5,29.91,SSE,158,7.0,14.0,79,0.00,,---,0.00,VWS V14.00,2013-06-22 12:25:00,
2013-06-22 07:34:00,76.7,69.7,29.91,SSE,158,8.0,14.0,79,0.00,,---,0.00,VWS V14.00,2013-06-22 12:34:00,
2013-06-22 07:35:00,76.7,69.7,29.91,SSE,158,8.0,14.0,79,0.00,,---,0.00,VWS V14.00,2013-06-22 12:35:00,
2013-06-22 07:40:00,77.0,70.0,29.92,SSE,159,12.0,14.0,79,0.00,,---,0.00,VWS V14.00,2013-06-22 12:40:00,
2013-06-22 07:45:00,77.3,69.9,29.92,SSE,160,6.0,13.0,78,0.00,,---,0.00,VWS V14.00,2013-06-22 12:45:00,
2013-06-22 07:50:00,77.5,70.1,29.92,South,172,3.0,15.0,78,0.00,,---,0.00,VWS V14.00,2013-06-22 12:50:00,
2013-06-22 07:55:00,77.7,70.3,29.92,SSE,163,9.0,13.0,78,0.00,,---,0.00,VWS V14.00,2013-06-22 12:55:00,
2013-06-22 08:00:00,77.9,70.5,29.92,SSE,161,6.0,11.0,78,0.00,,---,0.00,VWS V14.00,2013-06-22 13:00:00,
2013-06-22 08:05:00,78.2,70.4,29.92,SSE,152,10.0,13.0,77,0.00,,---,0.00,VWS V14.00,2013-06-22 13:05:00,
2013-06-22 08:10:00,78.4,70.6,29.92,SSE,157,11.0,11.0,77,0.00,,---,0.00,VWS V14.00,2013-06-22 13:10:00,
2013-06-22 08:15:00,78.7,70.9,29.92,SSE,159,9.0,13.0,77,0.00,,---,0.00,VWS V14.00,2013-06-22 13:15:00,
2013-06-22 08:20:00,78.8,70.6,29.92,South,173,8.0,14.0,76,0.00,,---,0.00,VWS V14.00,2013-06-22 13:20:00,
2013-06-22 08:25:00,79.1,70.9,29.92,South,169,9.0,15.0,76,0.00,,---,0.00,VWS V14.00,2013-06-22 13:25:00,
2013-06-22 08:30:00,79.4,70.8,29.92,SSE,167,8.0,12.0,75,0.00,,---,0.00,VWS V14.00,2013-06-22 13:30:00,
2013-06-22 08:35:00,79.7,71.1,29.92,South,169,6.0,15.0,75,0.00,,---,0.00,VWS V14.00,2013-06-22 13:35:00,
2013-06-22 08:39:00,79.9,70.9,29.92,South,172,12.0,16.0,74,0.00,,---,0.00,VWS V14.00,2013-06-22 13:39:00,
2013-06-22 08:44:00,80.1,70.7,29.92,South,173,10.0,14.0,73,0.00,,---,0.00,VWS V14.00,2013-06-22 13:44:00,
2013-06-22 08:49:00,80.2,70.8,29.92,South,189,12.0,16.0,73,0.00,,---,0.00,VWS V14.00,2013-06-22 13:49:00,
2013-06-22 08:54:00,80.4,71.0,29.92,South,188,7.0,14.0,73,0.00,,---,0.00,VWS V14.00,2013-06-22 13:54:00,
2013-06-22 08:59:00,80.7,71.2,29.92,South,190,14.0,17.0,73,0.00,,---,0.00,VWS V14.00,2013-06-22 13:59:00,
2013-06-22 09:04:00,80.9,71.0,29.93,South,187,7.0,17.0,72,0.00,,---,0.00,VWS V14.00,2013-06-22 14:04:00,
2013-06-22 09:09:00,81.1,71.2,29.93,South,186,6.0,19.0,72,0.00,,---,0.00,VWS V14.00,2013-06-22 14:09:00,
2013-06-22 09:14:00,81.4,71.1,29.93,South,188,14.0,18.0,71,0.00,,---,0.00,VWS V14.00,2013-06-22 14:14:00,
2013-06-22 09:19:00,81.6,71.3,29.93,SSW,194,14.0,15.0,71,0.00,,---,0.00,VWS V14.00,2013-06-22 14:19:00,
2013-06-22 09:24:00,81.7,71.4,29.93,South,177,9.0,17.0,71,0.00,,---,0.00,VWS V14.00,2013-06-22 14:24:00,
2013-06-22 09:29:00,81.8,71.5,29.93,South,188,7.0,15.0,71,0.00,,---,0.00,VWS V14.00,2013-06-22 14:29:00,
2013-06-22 09:34:00,82.0,71.3,29.93,South,181,12.0,17.0,70,0.00,,---,0.00,VWS V14.00,2013-06-22 14:34:00,
2013-06-22 09:39:00,82.3,72.0,29.93,South,173,8.0,17.0,71,0.00,,---,0.00,VWS V14.00,2013-06-22 14:39:00,
2013-06-22 09:44:00,82.7,72.3,29.93,South,182,5.0,13.0,71,0.00,,---,0.00,VWS V14.00,2013-06-22 14:44:00,
2013-06-22 09:49:00,82.9,72.1,29.93,SSE,165,8.0,13.0,70,0.00,,---,0.00,VWS V14.00,2013-06-22 14:49:00,
2013-06-22 09:54:00,83.1,72.3,29.93,SSE,163,9.0,17.0,70,0.00,,---,0.00,VWS V14.00,2013-06-22 14:54:00,
2013-06-22 09:59:00,83.3,71.6,29.93,SSW,203,9.0,20.0,68,0.00,,---,0.00,VWS V14.00,2013-06-22 14:59:00,
2013-06-22 10:04:00,83.5,71.8,29.93,SSE,166,15.0,16.0,68,0.00,,---,0.00,VWS V14.00,2013-06-22 15:04:00,
2013-06-22 10:09:00,83.8,72.6,29.93,SSE,167,9.0,12.0,69,0.00,,---,0.00,VWS V14.00,2013-06-22 15:09:00,
2013-06-22 10:14:00,84.1,72.4,29.93,South,182,13.0,16.0,68,0.00,,---,0.00,VWS V14.00,2013-06-22 15:14:00,
2013-06-22 10:19:00,84.4,72.2,29.93,South,180,9.0,15.0,67,0.00,,---,0.00,VWS V14.00,2013-06-22 15:19:00,
2013-06-22 10:24:00,84.6,72.4,29.93,South,182,15.0,17.0,67,0.00,,---,0.00,VWS V14.00,2013-06-22 15:24:00,
2013-06-22 10:29:00,84.8,71.7,29.93,SSW,194,7.0,13.0,65,0.00,,---,0.00,VWS V14.00,2013-06-22 15:29:00,
2013-06-22 10:34:00,85.2,72.1,29.93,South,180,11.0,18.0,65,0.00,,---,0.00,VWS V14.00,2013-06-22 15:34:00,
2013-06-22 10:39:00,85.5,72.4,29.93,South,173,11.0,15.0,65,0.00,,---,0.00,VWS V14.00,2013-06-22 15:39:00,
2013-06-22 10:44:00,85.9,72.3,29.93,SSE,168,7.0,15.0,64,0.00,,---,0.00,VWS V14.00,2013-06-22 15:44:00,
2013-06-22 10:49:00,86.0,71.5,29.93,South,183,11.0,19.0,62,0.00,,---,0.00,VWS V14.00,2013-06-22 15:49:00,
2013-06-22 10:54:00,85.9,71.8,29.93,SSE,161,11.0,19.0,63,0.00,,---,0.00,VWS V14.00,2013-06-22 15:54:00,
2013-06-22 10:59:00,85.8,71.3,29.93,SSE,161,10.0,17.0,62,0.00,,---,0.00,VWS V14.00,2013-06-22 15:59:00,
2013-06-22 11:04:00,86.1,72.0,29.93,SSE,156,10.0,17.0,63,0.00,,---,0.00,VWS V14.00,2013-06-22 16:04:00,
2013-06-22 11:09:00,86.2,72.1,29.93,SSE,161,6.0,15.0,63,0.00,,---,0.00,VWS V14.00,2013-06-22 16:09:00,
2013-06-22 11:14:00,86.2,70.7,29.93,SSE,156,18.0,20.0,60,0.00,,---,0.00,VWS V14.00,2013-06-22 16:14:00,
2013-06-22 11:19:00,86.3,70.8,29.93,South,188,12.0,19.0,60,0.00,,---,0.00,VWS V14.00,2013-06-22 16:19:00,
2013-06-22 11:24:00,86.3,70.3,29.93,SSW,200,16.0,17.0,59,0.00,,---,0.00,VWS V14.00,2013-06-22 16:24:00,
2013-06-22 11:29:00,86.3,70.3,29.93,South,184,11.0,18.0,59,0.00,,---,0.00,VWS V14.00,2013-06-22 16:29:00,
2013-06-22 11:34:00,86.3,69.3,29.93,South,178,12.0,20.0,57,0.00,,---,0.00,VWS V14.00,2013-06-22 16:34:00,
2013-06-22 11:39:00,86.2,68.7,29.93,SSW,196,16.0,19.0,56,0.00,,---,0.00,VWS V14.00,2013-06-22 16:39:00,
2013-06-22 11:44:00,86.5,71.0,29.93,South,171,9.0,12.0,60,0.00,,---,0.00,VWS V14.00,2013-06-22 16:44:00,
2013-06-22 11:49:00,86.8,70.8,29.93,South,177,11.0,16.0,59,0.00,,---,0.00,VWS V14.00,2013-06-22 16:49:00,
2013-06-22 11:54:00,87.1,70.0,29.93,South,172,9.0,16.0,57,0.00,,---,0.00,VWS V14.00,2013-06-22 16:54:00,
2013-06-22 11:59:00,87.5,70.9,29.93,SSE,157,11.0,14.0,58,0.00,,---,0.00,VWS V14.00,2013-06-22 16:59:00,
2013-06-22 12:04:00,87.8,70.7,29.93,SSE,161,12.0,19.0,57,0.00,,---,0.00,VWS V14.00,2013-06-22 17:04:00,
2013-06-22 12:09:00,87.9,70.8,29.93,SSE,162,10.0,17.0,57,0.00,,---,0.00,VWS V14.00,2013-06-22 17:09:00,
2013-06-22 12:14:00,88.1,69.4,29.93,SE,144,13.0,19.0,54,0.00,,---,0.00,VWS V14.00,2013-06-22 17:14:00,
2013-06-22 12:19:00,88.3,70.1,29.93,SSE,164,13.0,17.0,55,0.00,,---,0.00,VWS V14.00,2013-06-22 17:19:00,
2013-06-22 12:24:00,88.4,69.7,29.93,South,182,6.0,19.0,54,0.00,,---,0.00,VWS V14.00,2013-06-22 17:24:00,
2013-06-22 12:29:00,88.5,68.1,29.93,SSE,156,12.0,19.0,51,0.00,,---,0.00,VWS V14.00,2013-06-22 17:29:00,
2013-06-22 12:34:00,88.5,68.6,29.93,South,175,9.0,19.0,52,0.00,,---,0.00,VWS V14.00,2013-06-22 17:34:00,
2013-06-22 12:39:00,88.6,68.2,29.93,South,169,15.0,19.0,51,0.00,,---,0.00,VWS V14.00,2013-06-22 17:39:00,
2013-06-22 12:44:00,88.8,68.4,29.93,South,175,9.0,17.0,51,0.00,,---,0.00,VWS V14.00,2013-06-22 17:44:00,
2013-06-22 12:49:00,89.0,68.0,29.93,South,175,13.0,20.0,50,0.00,,---,0.00,VWS V14.00,2013-06-22 17:49:00,
2013-06-22 12:54:00,89.2,69.8,29.93,SSE,164,16.0,16.0,53,0.00,,---,0.00,VWS V14.00,2013-06-22 17:54:00,
2013-06-22 12:59:00,89.4,68.9,29.93,South,186,14.0,17.0,51,0.00,,---,0.00,VWS V14.00,2013-06-22 17:59:00,
2013-06-22 13:04:00,89.5,69.6,29.93,South,178,11.0,18.0,52,0.00,,---,0.00,VWS V14.00,2013-06-22 18:04:00,
2013-06-22 13:09:00,89.6,67.9,29.93,South,170,12.0,21.0,49,0.00,,---,0.00,VWS V14.00,2013-06-22 18:09:00,
2013-06-22 13:14:00,89.6,69.1,29.93,SSE,165,11.0,20.0,51,0.00,,---,0.00,VWS V14.00,2013-06-22 18:14:00,
2013-06-22 13:19:00,89.7,69.2,29.93,South,178,17.0,17.0,51,0.00,,---,0.00,VWS V14.00,2013-06-22 18:19:00,
2013-06-22 13:24:00,89.7,68.6,29.93,SSE,165,14.0,21.0,50,0.00,,---,0.00,VWS V14.00,2013-06-22 18:24:00,
2013-06-22 13:29:00,90.0,70.0,29.93,South,170,7.0,15.0,52,0.00,,---,0.00,VWS V14.00,2013-06-22 18:29:00,
2013-06-22 13:34:00,90.2,69.6,29.93,SSE,152,11.0,16.0,51,0.00,,---,0.00,VWS V14.00,2013-06-22 18:34:00,
2013-06-22 13:39:00,90.2,70.2,29.93,South,182,17.0,17.0,52,0.00,,---,0.00,VWS V14.00,2013-06-22 18:39:00,
2013-06-22 13:44:00,90.4,70.4,29.92,SE,136,11.0,16.0,52,0.00,,---,0.00,VWS V14.00,2013-06-22 18:44:00,
2013-06-22 13:49:00,90.5,71.1,29.92,SE,146,7.0,19.0,53,0.00,,---,0.00,VWS V14.00,2013-06-22 18:49:00,
2013-06-22 13:54:00,90.6,71.1,29.92,SSE,157,7.0,14.0,53,0.00,,---,0.00,VWS V14.00,2013-06-22 18:54:00,
2013-06-22 13:59:00,90.6,70.0,29.92,SE,146,13.0,20.0,51,0.00,,---,0.00,VWS V14.00,2013-06-22 18:59:00,
2013-06-22 14:04:00,90.5,70.5,29.92,SSE,151,14.0,17.0,52,0.00,,---,0.00,VWS V14.00,2013-06-22 19:04:00,
2013-06-22 14:09:00,90.5,70.5,29.92,SE,143,11.0,17.0,52,0.00,,---,0.00,VWS V14.00,2013-06-22 19:09:00,
2013-06-22 14:14:00,90.8,71.9,29.92,SSE,157,6.0,11.0,54,0.00,,---,0.00,VWS V14.00,2013-06-22 19:14:00,
2013-06-22 14:19:00,91.2,71.1,29.91,South,173,10.0,16.0,52,0.00,,---,0.00,VWS V14.00,2013-06-22 19:19:00,
2013-06-22 14:24:00,91.4,70.7,29.91,SSE,152,13.0,16.0,51,0.00,,---,0.00,VWS V14.00,2013-06-22 19:24:00,
2013-06-22 14:29:00,91.1,70.5,29.91,SSE,165,13.0,20.0,51,0.00,,---,0.00,VWS V14.00,2013-06-22 19:29:00,
2013-06-22 14:34:00,90.9,70.8,29.91,SSE,166,14.0,17.0,52,0.00,,---,0.00,VWS V14.00,2013-06-22 19:34:00,
2013-06-22 14:39:00,91.0,72.1,29.90,SSE,157,8.0,12.0,54,0.00,,---,0.00,VWS V14.00,2013-06-22 19:39:00,
2013-06-22 14:44:00,91.2,70.6,29.90,SE,138,12.0,19.0,51,0.00,,---,0.00,VWS V14.00,2013-06-22 19:44:00,
2013-06-22 14:49:00,91.1,70.5,29.90,SSE,167,10.0,16.0,51,0.00,,---,0.00,VWS V14.00,2013-06-22 19:49:00,
2013-06-22 14:54:00,91.3,70.1,29.89,SE,136,12.0,20.0,50,0.00,,---,0.00,VWS V14.00,2013-06-22 19:54:00,
2013-06-22 14:59:00,91.4,69.6,29.89,South,180,13.0,23.0,49,0.00,,---,0.00,VWS V14.00,2013-06-22 19:59:00,
2013-06-22 15:04:00,91.6,72.1,29.89,SSE,155,9.0,18.0,53,0.00,,---,0.00,VWS V14.00,2013-06-22 20:04:00,
2013-06-22 15:09:00,91.6,69.2,29.89,ESE,123,11.0,23.0,48,0.00,,---,0.00,VWS V14.00,2013-06-22 20:09:00,
2013-06-22 15:14:00,91.6,68.5,29.89,South,186,10.0,18.0,47,0.00,,---,0.00,VWS V14.00,2013-06-22 20:14:00,
2013-06-22 15:19:00,91.8,70.5,29.89,South,175,20.0,23.0,50,0.00,,---,0.00,VWS V14.00,2013-06-22 20:19:00,
2013-06-22 15:24:00,91.7,70.4,29.88,SSE,148,12.0,24.0,50,0.00,,---,0.00,VWS V14.00,2013-06-22 20:24:00,
2013-06-22 15:29:00,91.6,70.9,29.88,South,169,17.0,18.0,51,0.00,,---,0.00,VWS V14.00,2013-06-22 20:29:00,
2013-06-22 15:34:00,91.6,71.5,29.88,South,175,13.0,16.0,52,0.00,,---,0.00,VWS V14.00,2013-06-22 20:34:00,
2013-06-22 15:39:00,91.6,71.5,29.87,SE,146,11.0,20.0,52,0.00,,---,0.00,VWS V14.00,2013-06-22 20:39:00,
2013-06-22 15:44:00,91.4,71.9,29.87,SE,146,11.0,19.0,53,0.00,,---,0.00,VWS V14.00,2013-06-22 20:44:00,
2013-06-22 15:49:00,91.3,71.8,29.87,SSE,150,7.0,17.0,53,0.00,,---,0.00,VWS V14.00,2013-06-22 20:49:00,
2013-06-22 15:54:00,91.4,70.2,29.86,South,188,13.0,24.0,50,0.00,,---,0.00,VWS V14.00,2013-06-22 20:54:00,
2013-06-22 15:59:00,91.3,70.7,29.86,SSE,152,9.0,20.0,51,0.00,,---,0.00,VWS V14.00,2013-06-22 20:59:00,
2013-06-22 16:04:00,91.3,70.7,29.86,SE,144,10.0,18.0,51,0.00,,---,0.00,VWS V14.00,2013-06-22 21:04:00,
2013-06-22 16:09:00,91.4,71.9,29.86,SE,137,15.0,21.0,53,0.00,,---,0.00,VWS V14.00,2013-06-22 21:09:00,
2013-06-22 16:14:00,91.4,71.3,29.86,South,169,15.0,18.0,52,0.00,,---,0.00,VWS V14.00,2013-06-22 21:14:00,
2013-06-22 16:19:00,91.4,71.9,29.86,SE,134,15.0,18.0,53,0.00,,---,0.00,VWS V14.00,2013-06-22 21:19:00,
2013-06-22 16:24:00,91.3,71.8,29.85,SSE,159,12.0,18.0,53,0.00,,---,0.00,VWS V14.00,2013-06-22 21:24:00,
2013-06-22 16:29:00,91.5,72.0,29.85,SSE,160,5.0,14.0,53,0.00,,---,0.00,VWS V14.00,2013-06-22 21:29:00,
2013-06-22 16:34:00,91.6,71.5,29.85,SSE,161,8.0,17.0,52,0.00,,---,0.00,VWS V14.00,2013-06-22 21:34:00,
2013-06-22 16:39:00,91.6,71.5,29.85,SSE,162,14.0,17.0,52,0.00,,---,0.00,VWS V14.00,2013-06-22 21:39:00,
2013-06-22 16:44:00,91.8,72.2,29.85,SSE,166,10.0,13.0,53,0.00,,---,0.00,VWS V14.00,2013-06-22 21:44:00,
2013-06-22 16:49:00,91.8,70.5,29.84,SE,140,18.0,20.0,50,0.00,,---,0.00,VWS V14.00,2013-06-22 21:49:00,
2013-06-22 16:54:00,91.4,69.6,29.84,SE,140,13.0,19.0,49,0.00,,---,0.00,VWS V14.00,2013-06-22 21:54:00,
2013-06-22 16:59:00,91.3,70.1,29.84,SSE,159,13.0,17.0,50,0.00,,---,0.00,VWS V14.00,2013-06-22 21:59:00,
2013-06-22 17:04:00,91.2,69.4,29.84,South,182,15.0,18.0,49,0.00,,---,0.00,VWS V14.00,2013-06-22 22:04:00,
2013-06-22 17:09:00,91.2,68.8,29.84,SSE,167,13.0,23.0,48,0.00,,---,0.00,VWS V14.00,2013-06-22 22:09:00,
2013-06-22 17:14:00,91.1,69.3,29.84,SSE,151,9.0,19.0,49,0.00,,---,0.00,VWS V14.00,2013-06-22 22:14:00,
2013-06-22 17:19:00,91.0,68.6,29.84,SE,131,13.0,21.0,48,0.00,,---,0.00,VWS V14.00,2013-06-22 22:19:00,
2013-06-22 17:24:00,90.8,68.4,29.83,SE,144,21.0,21.0,48,0.00,,---,0.00,VWS V14.00,2013-06-22 22:24:00,
2013-06-22 17:29:00,90.7,68.9,29.83,SE,146,12.0,17.0,49,0.00,,---,0.00,VWS V14.00,2013-06-22 22:29:00,
2013-06-22 17:34:00,90.6,67.6,29.83,SE,146,9.0,20.0,47,0.00,,---,0.00,VWS V14.00,2013-06-22 22:34:00,
2013-06-22 17:39:00,90.6,68.8,29.82,South,181,11.0,13.0,49,0.00,,---,0.00,VWS V14.00,2013-06-22 22:39:00,
2013-06-22 17:44:00,90.5,68.2,29.82,SE,146,9.0,16.0,48,0.00,,---,0.00,VWS V14.00,2013-06-22 22:44:00,
2013-06-22 17:49:00,90.5,68.8,29.82,SSE,159,7.0,15.0,49,0.00,,---,0.00,VWS V14.00,2013-06-22 22:49:00,
2013-06-22 17:54:00,90.4,68.7,29.82,SSE,148,8.0,14.0,49,0.00,,---,0.00,VWS V14.00,2013-06-22 22:54:00,
2013-06-22 17:59:00,90.3,69.2,29.82,SE,144,8.0,15.0,50,0.00,,---,0.00,VWS V14.00,2013-06-22 22:59:00,
2013-06-22 18:04:00,90.2,69.1,29.81,SSE,151,6.0,16.0,50,0.00,,---,0.00,VWS V14.00,2013-06-22 23:04:00,
2013-06-22 18:09:00,90.1,69.0,29.81,SE,145,11.0,15.0,50,0.00,,---,0.00,VWS V14.00,2013-06-22 23:09:00,
2013-06-22 18:14:00,89.8,68.1,29.81,SE,139,16.0,17.0,49,0.00,,---,0.00,VWS V14.00,2013-06-22 23:14:00,
2013-06-22 18:19:00,89.6,68.5,29.81,SSE,165,5.0,14.0,50,0.00,,---,0.00,VWS V14.00,2013-06-22 23:19:00,
2013-06-22 18:24:00,89.4,68.3,29.81,SSE,153,11.0,16.0,50,0.00,,---,0.00,VWS V14.00,2013-06-22 23:24:00,
2013-06-22 18:29:00,89.2,68.7,29.80,SSE,159,10.0,13.0,51,0.00,,---,0.00,VWS V14.00,2013-06-22 23:29:00,
2013-06-22 18:34:00,89.0,68.5,29.80,SSE,163,7.0,19.0,51,0.00,,---,0.00,VWS V14.00,2013-06-22 23:34:00,
2013-06-22 18:39:00,88.9,67.9,29.80,SSE,162,8.0,17.0,50,0.00,,---,0.00,VWS V14.00,2013-06-22 23:39:00,
2013-06-22 18:44:00,88.7,67.7,29.80,SE,142,11.0,14.0,50,0.00,,---,0.00,VWS V14.00,2013-06-22 23:44:00,
2013-06-22 18:49:00,88.5,67.5,29.80,SE,142,9.0,21.0,50,0.00,,---,0.00,VWS V14.00,2013-06-22 23:49:00,
2013-06-22 18:54:00,88.4,68.0,29.80,SSE,158,9.0,13.0,51,0.00,,---,0.00,VWS V14.00,2013-06-22 23:54:00,
2013-06-22 18:59:00,88.2,67.8,29.80,SSE,150,8.0,13.0,51,0.00,,---,0.00,VWS V14.00,2013-06-22 23:59:00,
2013-06-22 19:04:00,88.1,67.7,29.80,SSE,153,7.0,15.0,51,0.00,,---,0.00,VWS V14.00,2013-06-23 00:04:00,
2013-06-22 19:09:00,87.9,67.5,29.80,SSE,148,12.0,20.0,51,0.00,,---,0.00,VWS V14.00,2013-06-23 00:09:00,
2013-06-22 19:14:00,87.7,67.9,29.80,SSE,148,10.0,17.0,52,0.00,,---,0.00,VWS V14.00,2013-06-23 00:14:00,
2013-06-22 19:19:00,87.4,67.1,29.81,SE,139,10.0,14.0,51,0.00,,---,0.00,VWS V14.00,2013-06-23 00:19:00,
2013-06-22 19:24:00,87.3,67.0,29.81,SSE,150,11.0,16.0,51,0.00,,---,0.00,VWS V14.00,2013-06-23 00:24:00,
2013-06-22 19:29:00,87.1,66.8,29.81,SSE,160,5.0,13.0,51,0.00,,---,0.00,VWS V14.00,2013-06-23 00:29:00,
2013-06-22 19:34:00,86.8,66.5,29.81,SSE,161,7.0,15.0,51,0.00,,---,0.00,VWS V14.00,2013-06-23 00:34:00,
2013-06-22 19:39:00,86.6,66.9,29.81,SSE,153,3.0,8.0,52,0.00,,---,0.00,VWS V14.00,2013-06-23 00:39:00,
2013-06-22 19:44:00,86.4,67.3,29.81,SSE,155,5.0,7.0,53,0.00,,---,0.00,VWS V14.00,2013-06-23 00:44:00,
2013-06-22 19:49:00,86.1,67.5,29.81,SSE,154,4.0,10.0,54,0.00,,---,0.00,VWS V14.00,2013-06-23 00:49:00,
2013-06-22 19:54:00,85.8,67.8,29.81,SE,143,5.0,10.0,55,0.00,,---,0.00,VWS V14.00,2013-06-23 00:54:00,
2013-06-22 19:59:00,85.5,67.5,29.81,SE,142,3.0,6.0,55,0.00,,---,0.00,VWS V14.00,2013-06-23 00:59:00,
2013-06-22 20:04:00,85.3,67.8,29.81,SE,142,3.0,6.0,56,0.00,,---,0.00,VWS V14.00,2013-06-23 01:04:00,
2013-06-22 20:09:00,85.0,68.1,29.81,SE,142,3.0,5.0,57,0.00,,---,0.00,VWS V14.00,2013-06-23 01:09:00,
2013-06-22 20:14:00,84.7,68.3,29.81,SE,142,2.0,5.0,58,0.00,,---,0.00,VWS V14.00,2013-06-23 01:14:00,
2013-06-22 20:19:00,84.4,68.5,29.82,SE,142,2.0,4.0,59,0.00,,---,0.00,VWS V14.00,2013-06-23 01:19:00,
2013-06-22 20:24:00,84.0,68.6,29.82,SE,142,1.0,3.0,60,0.00,,---,0.00,VWS V14.00,2013-06-23 01:24:00,
2013-06-22 20:29:00,83.7,68.8,29.82,SE,142,2.0,4.0,61,0.00,,---,0.00,VWS V14.00,2013-06-23 01:29:00,
2013-06-22 20:34:00,83.3,69.4,29.82,SE,142,1.0,5.0,63,0.00,,---,0.00,VWS V14.00,2013-06-23 01:34:00,
2013-06-22 20:39:00,83.0,69.6,29.82,SE,142,2.0,6.0,64,0.00,,---,0.00,VWS V14.00,2013-06-23 01:39:00,
2013-06-22 20:44:00,82.6,69.7,29.82,SE,143,7.0,7.0,65,0.00,,---,0.00,VWS V14.00,2013-06-23 01:44:00,
2013-06-22 20:49:00,82.2,69.7,29.82,SE,144,4.0,6.0,66,0.00,,---,0.00,VWS V14.00,2013-06-23 01:49:00,
2013-06-22 20:54:00,82.0,70.0,29.82,SE,144,4.0,6.0,67,0.00,,---,0.00,VWS V14.00,2013-06-23 01:54:00,
2013-06-22 20:59:00,81.7,69.7,29.82,SE,144,4.0,6.0,67,0.00,,---,0.00,VWS V14.00,2013-06-23 01:59:00,
2013-06-22 21:04:00,81.5,69.5,29.82,SE,144,1.0,5.0,67,0.00,,---,0.00,VWS V14.00,2013-06-23 02:04:00,
2013-06-22 21:09:00,81.3,69.7,29.82,SE,144,5.0,6.0,68,0.00,,---,0.00,VWS V14.00,2013-06-23 02:09:00,
2013-06-22 21:14:00,81.1,69.6,29.82,SE,146,5.0,6.0,68,0.00,,---,0.00,VWS V14.00,2013-06-23 02:14:00,
2013-06-22 21:19:00,81.0,69.4,29.82,SE,144,2.0,7.0,68,0.00,,---,0.00,VWS V14.00,2013-06-23 02:19:00,
2013-06-22 21:24:00,80.9,69.4,29.82,SE,142,6.0,8.0,68,0.00,,---,0.00,VWS V14.00,2013-06-23 02:24:00,
2013-06-22 21:29:00,80.7,69.2,29.82,SE,142,5.0,6.0,68,0.00,,---,0.00,VWS V14.00,2013-06-23 02:29:00,
2013-06-22 21:34:00,80.7,69.2,29.83,SE,141,4.0,8.0,68,0.00,,---,0.00,VWS V14.00,2013-06-23 02:34:00,
2013-06-22 21:39:00,80.6,69.1,29.83,SE,140,8.0,9.0,68,0.00,,---,0.00,VWS V14.00,2013-06-23 02:39:00,
2013-06-22 21:44:00,80.5,69.0,29.83,SE,138,5.0,9.0,68,0.00,,---,0.00,VWS V14.00,2013-06-23 02:44:00,
2013-06-22 21:49:00,80.4,68.9,29.84,SE,136,5.0,9.0,68,0.00,,---,0.00,VWS V14.00,2013-06-23 02:49:00,
2013-06-22 21:54:00,80.3,69.2,29.84,SE,136,3.0,9.0,69,0.00,,---,0.00,VWS V14.00,2013-06-23 02:54:00,
2013-06-22 21:59:00,80.2,69.1,29.84,SE,138,5.0,7.0,69,0.00,,---,0.00,VWS V14.00,2013-06-23 02:59:00,
2013-06-22 22:04:00,80.1,69.0,29.84,SE,138,7.0,7.0,69,0.00,,---,0.00,VWS V14.00,2013-06-23 03:04:00,
2013-06-22 22:09:00,80.0,68.9,29.84,SE,141,4.0,7.0,69,0.00,,---,0.00,VWS V14.00,2013-06-23 03:09:00,
2013-06-22 22:14:00,79.9,68.8,29.84,SE,139,5.0,7.0,69,0.00,,---,0.00,VWS V14.00,2013-06-23 03:14:00,
2013-06-22 22:19:00,79.8,69.2,29.84,SE,138,5.0,7.0,70,0.00,,---,0.00,VWS V14.00,2013-06-23 03:19:00,
2013-06-22 22:24:00,79.7,69.1,29.84,SE,138,5.0,9.0,70,0.00,,---,0.00,VWS V14.00,2013-06-23 03:24:00,
2013-06-22 22:29:00,79.6,69.0,29.84,SE,137,7.0,7.0,70,0.00,,---,0.00,VWS V14.00,2013-06-23 03:29:00,
2013-06-22 22:34:00,79.6,69.0,29.85,SE,128,9.0,12.0,70,0.00,,---,0.00,VWS V14.00,2013-06-23 03:34:00,
2013-06-22 22:39:00,79.6,69.0,29.84,SE,142,5.0,9.0,70,0.00,,---,0.00,VWS V14.00,2013-06-23 03:39:00,
2013-06-22 22:44:00,79.6,69.0,29.85,SE,136,6.0,12.0,70,0.00,,---,0.00,VWS V14.00,2013-06-23 03:44:00,
2013-06-22 22:49:00,79.6,69.4,29.85,SE,136,7.0,9.0,71,0.00,,---,0.00,VWS V14.00,2013-06-23 03:49:00,
2013-06-22 22:54:00,79.5,69.3,29.85,SE,130,6.0,11.0,71,0.00,,---,0.00,VWS V14.00,2013-06-23 03:54:00,
2013-06-22 22:59:00,79.4,69.2,29.85,SE,128,4.0,10.0,71,0.00,,---,0.00,VWS V14.00,2013-06-23 03:59:00,
2013-06-22 23:01:00,79.5,69.3,29.85,SE,128,4.0,10.0,71,0.00,,---,0.00,VWS V14.00,2013-06-23 04:01:00,
2013-06-22 23:06:00,79.3,69.1,29.85,SE,131,5.0,12.0,71,0.00,,---,0.00,VWS V14.00,2013-06-23 04:06:00,
2013-06-22 23:11:00,79.3,69.5,29.85,SE,130,7.0,12.0,72,0.00,,---,0.00,VWS V14.00,2013-06-23 04:11:00,
2013-06-22 23:16:00,79.2,69.4,29.85,SE,131,5.0,10.0,72,0.00,,---,0.00,VWS V14.00,2013-06-23 04:16:00,
2013-06-22 23:21:00,79.1,69.3,29.85,SE,140,5.0,12.0,72,0.00,,---,0.00,VWS V14.00,2013-06-23 04:21:00,
2013-06-22 23:26:00,79.2,69.4,29.85,SE,136,9.0,10.0,72,0.00,,---,0.00,VWS V14.00,2013-06-23 04:26:00,
2013-06-22 23:31:00,79.2,69.4,29.85,SE,142,4.0,13.0,72,0.00,,---,0.00,VWS V14.00,2013-06-23 04:31:00,
2013-06-22 23:36:00,79.1,69.3,29.86,SSE,150,5.0,9.0,72,0.00,,---,0.00,VWS V14.00,2013-06-23 04:36:00,
2013-06-22 23:41:00,79.0,69.6,29.85,SE,140,5.0,10.0,73,0.00,,---,0.00,VWS V14.00,2013-06-23 04:41:00,
2013-06-22 23:46:00,78.8,69.4,29.85,ESE,122,9.0,13.0,73,0.00,,---,0.00,VWS V14.00,2013-06-23 04:46:00,
2013-06-22 23:51:00,78.7,69.7,29.86,SE,130,9.0,10.0,74,0.00,,---,0.00,VWS V14.00,2013-06-23 04:51:00,
2013-06-22 23:56:00,78.6,69.6,29.86,SE,139,5.0,13.0,74,0.00,,---,0.00,VWS V14.00,2013-06-23 04:56:00,